RH
80 92 92 93 92 74 73 73 71 79 82 81 73 83 77 69 52 78 95 97 88 89 70 72 90 99 76 57 44 46 45 42 34 28 23 19 21 21 19 17 18 16 21 49 59
86 88 84 82 93 72 89 71 63 66 74 78 74 79 89 79 74 69 83 96 89 82 100 72 86 90 71 55 48 42 45 38 26 22 23 20 22 18 22 19 16 19 30 56 61
92 88 81 77 90 89 89 86 84 92 91 83 75 75 84 79 75 53 62 83 84 71 89 68 72 85 64 52 44 38 31 26 21 28 29 23 23 17 21 17 16 18 20 43 66
93 82 82 79 80 87 74 72 93 88 81 78 85 72 87 88 59 47 48 68 73 88 80 82 63 78 62 56 44 38 30 22 25 33 36 26 21 22 22 18 20 22 32 33 55
97 82 81 78 76 74 76 70 71 74 68 74 75 76 89 88 65 63 85 74 92 94 70 71 58 65 59 50 42 40 28 28 34 43 39 28 24 24 23 24 29 30 34 30 31
88 86 85 83 80 75 76 73 67 74 75 72 72 73 87 72 53 52 89 98 95 98 68 62 56 58 54 50 42 39 37 34 33 40 42 38 29 30 28 26 29 28 28 26 29
84 83 83 86 88 80 78 75 74 81 73 70 78 89 85 64 57 80 72 92 91 91 69 59 55 53 53 53 47 43 42 36 33 35 36 40 37 35 30 27 27 25 25 24 24
88 97 94 81 90 85 74 82 70 71 70 78 72 98 80 62 62 66 91 85 93 96 70 61 65 50 53 51 51 48 42 51 34 35 33 36 34 24 29 27 24 21 21 20 22
85 84 90 82 84 76 77 69 65 68 65 71 87 91 57 62 60 63 91 95 84 93 69 68 82 56 54 55 59 50 47 39 31 28 34 40 27 22 29 29 25 23 23 24 23
83 81 87 82 84 76 64 74 80 65 78 94 91 80 59 50 63 82 89 89 89 83 74 87 83 76 58 53 60 48 42 28 28 39 32 34 34 23 27 26 28 24 23 24 25
97 81 84 85 84 72 81 91 81 84 83 62 61 55 68 90 94 84 95 85 96 68 76 90 93 92 56 37 29 26 31 24 25 37 38 33 32 25 27 29 28 26 24 22 22
92 81 88 80 72 69 85 75 86 94 68 63 65 63 65 94 97 94 94 66 92 68 56 95 96 64 41 34 33 36 32 32 34 38 38 31 35 31 28 27 25 26 26 25 25
94 80 83 82 67 90 93 84 82 87 75 60 72 70 85 99 99 93 94 84 75 56 69 71 75 71 73 46 42 37 40 33 39 45 38 38 40 33 31 29 29 29 27 26 26
82 66 64 76 93 98 92 77 86 98 88 66 86 94 95 98 90 90 96 93 76 70 76 82 63 80 76 53 39 43 31 34 47 46 36 36 24 37 31 31 28 28 26 30 36
57 63 65 59 95 92 97 86 92 96 92 81 92 94 90 98 93 96 82 92 87 94 86 94 78 89 61 51 38 39 44 47 48 48 48 44 40 32 28 34 32 31 36 41 45
52 57 66 98 94 76 82 92 94 97 94 100 95 96 90 80 82 99 95 85 74 84 85 93 94 89 65 68 47 49 49 49 48 51 68 44 35 35 30 29 32 33 37 42 48
64 49 65 75 88 82 95 98 96 90 93 100 99 81 57 65 76 85 92 91 93 100 100 99 98 89 80 82 62 52 60 88 88 86 59 42 49 29 21 26 30 33 38 44 49
56 53 64 85 98 98 97 91 89 84 100 87 94 70 91 73 74 74 77 74 58 69 100 100 100 98 91 84 93 74 58 67 64 64 50 44 43 28 24 31 35 39 44 48 50
51 56 75 96 82 99 95 96 91 95 96 99 63 85 77 60 73 83 63 60 57 55 89 95 99 93 86 82 71 88 76 46 48 44 44 35 31 30 26 29 30 37 43 47 51
49 54 82 80 76 100 87 93 96 87 81 70 69 58 61 60 63 65 52 49 55 46 42 60 94 69 68 68 59 64 46 69 78 64 43 34 27 25 34 33 30 35 41 45 52
62 70 68 72 79 75 99 93 87 71 73 65 54 55 52 54 49 49 51 52 44 45 40 45 53 80 55 59 56 54 57 51 49 46 35 23 23 23 28 30 33 36 42 46 58
88 91 64 69 79 65 69 68 76 62 68 61 48 46 46 47 50 46 50 46 45 39 44 47 54 77 70 50 47 46 45 42 63 58 53 47 34 23 24 27 32 38 43 50 64
100 75 63 75 86 74 69 67 64 56 52 48 48 46 44 46 53 46 47 52 48 42 43 42 62 83 78 58 53 60 49 43 47 71 78 40 37 25 24 30 33 40 44 55 66
87 87 76 73 76 60 62 68 58 67 50 47 45 43 44 45 42 52 53 53 52 48 50 42 50 60 61 78 61 76 58 51 76 85 47 37 37 34 30 30 35 39 44 60 65
82 82 92 85 63 63 59 56 53 53 50 47 45 43 42 48 46 48 50 54 52 54 47 44 88 69 55 53 79 70 63 62 91 61 74 35 33 31 26 32 36 40 56 64 63
91 96 88 82 68 62 62 53 57 57 56 48 47 45 41 42 41 47 47 44 45 48 45 50 87 76 80 54 59 72 55 56 58 54 48 44 44 28 31 36 43 47 64 67 61
86 98 99 79 60 60 62 58 57 60 64 59 45 44 44 54 52 44 42 39 40 44 48 52 68 76 69 58 58 67 54 52 52 48 48 59 40 33 37 41 48 57 71 63 62
Wind_Speed
22 22 20 20 21 21 20 19 19 19 18 19 19 17 16 15 17 28 23 18 21 8 8 17 20 14 14 15 18 12 13 17 24 23 19 12 14 16 9 14 7 7 4 3 4
25 24 21 20 21 20 20 20 20 20 20 18 18 18 14 16 16 24 28 26 19 17 11 18 23 19 17 18 13 15 15 23 19 19 10 14 14 16 9 14 14 11 5 1 5
24 23 22 22 21 20 19 17 16 16 15 16 16 15 15 13 18 33 24 26 26 21 16 14 21 20 17 16 21 18 19 19 18 4 3 13 17 18 14 12 16 15 13 4 5
26 24 23 22 20 19 17 15 15 14 14 13 14 14 12 7 7 2 22 27 27 24 21 15 26 22 16 15 25 15 27 16 12 4 3 11 15 12 15 6 8 5 5 4 5
25 25 24 22 20 21 17 15 15 13 12 12 11 11 11 14 21 8 10 22 24 27 29 25 29 26 17 21 17 18 11 20 6 8 8 15 17 14 14 8 5 7 6 6 5
26 26 26 23 20 19 16 14 13 11 11 10 10 10 11 18 14 15 10 10 28 28 30 29 27 28 15 9 21 13 18 13 15 11 9 9 13 11 13 12 12 12 12 10 10
28 28 28 26 21 18 14 12 12 11 9 8 8 9 14 21 7 10 22 11 10 32 31 30 21 28 10 6 15 5 19 7 17 17 7 10 14 18 18 11 13 14 16 15 16
30 31 29 24 18 14 12 13 11 10 10 11 9 8 11 13 22 21 11 23 6 27 28 27 21 28 8 6 13 13 13 16 15 13 13 13 14 19 25 22 24 21 19 19 19
33 31 27 21 14 9 12 7 8 9 12 10 7 9 13 6 19 18 17 22 13 31 24 24 20 24 17 14 11 14 14 17 13 22 10 15 9 12 10 9 14 16 16 18 19
35 31 29 14 7 6 3 2 6 5 4 6 7 5 14 8 12 15 12 15 11 24 23 20 15 10 12 15 15 21 23 20 18 10 17 18 15 6 9 12 14 15 15 15 16
32 30 26 9 0 2 2 3 2 3 6 5 2 12 10 12 9 17 17 19 13 29 14 17 7 15 27 25 18 15 19 14 13 8 10 16 14 17 13 16 17 17 17 18 18
31 28 20 12 8 5 5 3 2 3 6 4 9 9 8 12 3 15 16 20 14 23 18 9 7 17 21 19 14 9 16 14 5 10 8 12 12 9 13 17 19 16 16 16 14
26 24 12 8 8 8 6 5 3 0 4 2 1 3 5 3 9 13 11 11 17 24 19 12 8 10 11 17 14 12 14 14 8 8 8 3 12 13 3 5 6 8 11 7 6
21 19 19 5 5 6 6 4 4 1 2 4 5 3 4 7 6 7 7 3 1 21 13 1 6 18 13 17 15 13 10 9 7 12 5 8 3 10 10 7 6 7 8 9 8
16 14 13 13 3 3 4 1 3 3 1 4 6 5 5 4 14 7 6 5 6 9 5 4 12 13 19 15 16 6 9 10 7 6 1 8 5 9 12 10 8 8 9 8 6
16 13 10 8 6 7 6 6 7 4 7 2 3 4 6 14 13 10 5 11 16 9 8 5 5 4 2 7 4 14 14 8 4 1 5 9 8 10 11 11 9 9 9 6 4
16 12 10 8 4 8 7 4 1 6 2 8 4 3 13 14 10 6 3 3 6 5 2 2 3 3 6 9 3 10 13 4 4 4 3 4 5 6 10 14 10 9 8 5 2
16 10 11 9 8 6 6 3 8 4 5 4 3 13 7 7 6 6 7 11 8 10 3 3 5 1 1 3 6 13 13 3 6 6 6 4 6 2 12 15 9 5 3 1 1
15 7 8 10 11 4 6 4 2 1 4 4 3 6 4 8 5 4 6 9 4 4 4 2 5 4 1 4 2 5 5 2 1 3 2 6 4 3 8 11 6 4 3 1 1
12 6 5 12 8 2 2 4 2 1 3 5 3 4 3 4 4 3 5 4 5 1 2 4 5 5 8 11 5 4 7 3 1 5 5 5 5 3 16 16 8 5 2 1 2
7 4 7 10 7 0 3 4 1 2 3 4 3 3 6 7 4 3 3 3 2 3 2 7 2 3 2 3 4 3 3 1 3 2 3 4 3 5 15 16 7 2 1 2 2
5 2 10 7 2 3 3 1 1 2 2 2 3 3 4 5 3 2 4 4 3 3 4 2 5 5 2 2 5 5 4 8 3 4 1 4 4 3 15 15 4 1 1 2 2
8 4 7 5 1 1 2 2 1 2 2 1 1 1 3 3 2 4 3 2 3 1 2 5 5 4 2 2 2 5 7 4 2 3 4 3 5 5 11 6 4 2 3 2 3
5 3 4 2 2 3 1 2 3 1 1 1 1 1 5 4 2 5 5 2 2 4 5 2 2 2 0 3 3 4 8 8 4 2 3 5 8 11 10 5 3 2 3 3 3
6 3 3 3 1 7 4 2 2 2 0 0 3 2 2 2 2 3 5 7 3 2 2 1 2 3 3 4 3 3 7 11 6 8 3 3 6 13 0 4 3 5 2 4 3
4 4 6 6 9 7 1 2 4 1 2 3 2 4 2 1 4 2 6 6 4 6 4 1 2 2 1 1 5 6 9 11 14 15 13 11 9 8 1 2 4 4 2 2 5
8 5 4 5 5 4 1 4 2 2 0 3 2 4 3 4 3 2 2 2 1 4 7 5 5 4 3 3 5 9 16 16 11 9 16 11 8 4 4 4 4 3 3 2 3
Wind_Direction
323 323 318 317 313 310 309 300 289 284 284 274 270 259 271 273 264 249 248 214 209 227 206 196 193 203 195 207 210 217 225 228 230 235 240 229 201 217 235 244 211 212 283 77 119
325 317 313 312 312 308 305 299 291 285 283 276 268 256 258 271 272 260 239 208 204 214 196 192 190 189 191 202 199 209 217 219 230 240 244 226 221 211 208 216 221 217 203 141 168
321 317 311 309 307 304 301 300 296 291 282 273 266 256 248 267 286 261 236 218 212 202 188 198 188 187 201 200 205 214 228 227 238 288 186 244 221 237 213 216 221 212 200 204 189
321 319 315 313 304 303 301 294 297 287 282 278 263 247 240 238 249 35 222 222 219 202 202 190 190 190 204 200 209 231 224 241 205 209 218 234 225 206 226 213 221 188 144 213 214
322 321 315 312 303 301 298 292 294 289 282 267 257 242 233 230 241 283 205 205 205 196 198 197 194 193 207 204 207 216 228 218 180 171 211 222 230 218 218 208 173 187 231 229 227
324 320 315 313 305 298 292 289 290 289 285 271 254 241 227 246 248 246 206 155 200 195 195 197 201 192 212 214 207 206 235 223 209 185 182 206 221 220 233 223 225 234 240 239 240
325 324 318 304 298 296 285 283 284 283 274 272 259 230 233 233 247 223 231 183 200 202 193 196 198 197 199 191 205 248 214 197 212 196 194 204 239 226 238 220 232 234 243 245 246
332 327 319 315 293 288 276 275 273 265 264 271 253 235 249 242 244 249 246 231 216 195 190 189 197 197 209 176 181 201 204 213 215 206 217 192 241 218 226 239 242 242 245 247 247
336 333 326 313 299 270 292 253 263 263 274 261 237 223 255 256 230 238 220 203 182 177 179 187 202 201 196 183 181 205 205 207 194 200 180 201 244 200 182 217 234 237 241 246 250
344 345 339 322 283 266 283 296 276 294 303 220 232 232 246 251 234 204 208 207 182 170 160 185 189 194 201 191 197 198 213 200 207 191 220 216 235 204 224 224 244 247 244 243 249
351 354 0 5 181 309 42 351 250 215 219 247 309 236 359 329 207 198 180 193 170 166 179 175 174 192 196 200 213 235 204 223 202 146 199 220 236 233 221 241 247 252 249 247 251
356 357 23 31 33 59 24 346 354 337 303 259 261 272 286 297 280 213 166 180 182 171 181 172 207 202 196 206 210 255 197 192 158 147 211 209 235 233 240 245 249 259 260 258 257
1 6 12 26 29 37 17 333 276 359 255 83 327 301 264 253 248 132 150 192 193 169 190 195 145 226 264 197 184 199 195 193 196 169 221 255 240 229 213 238 239 242 242 234 216
1 8 9 23 34 347 3 20 104 307 293 32 0 106 251 260 22 105 97 163 136 159 149 176 141 182 208 189 192 180 203 165 157 180 209 194 222 177 171 170 164 145 147 142 135
351 7 11 23 36 30 301 55 19 325 75 329 315 298 270 234 158 27 64 287 127 117 133 111 200 194 196 191 198 188 153 167 178 214 274 191 249 131 166 169 154 142 139 134 120
334 346 356 346 5 21 2 353 337 244 44 330 269 242 159 184 107 143 76 93 97 62 39 29 34 344 211 54 141 136 129 118 110 195 235 213 227 167 185 173 151 141 138 130 103
335 315 336 340 324 329 340 318 288 14 294 9 333 346 85 72 74 71 88 88 105 120 122 78 18 60 26 88 35 175 169 136 168 188 231 133 202 335 149 146 146 137 137 136 107
339 319 329 328 322 319 319 244 54 353 351 335 326 54 47 29 62 36 114 95 108 107 120 99 114 50 249 125 177 186 194 233 191 192 159 159 217 159 149 134 140 144 141 176 173
343 328 339 324 336 337 285 48 87 67 315 334 65 63 48 76 101 56 52 79 104 77 81 106 78 79 82 207 134 173 199 27 30 38 175 173 142 144 159 166 172 134 180 182 278
355 329 312 344 347 17 350 84 3 172 290 260 52 311 99 96 95 172 71 52 101 73 276 147 103 120 152 151 160 193 144 163 197 173 211 177 190 166 180 181 177 171 169 285 279
17 325 325 345 4 170 30 51 295 223 276 326 28 111 128 148 144 67 45 98 79 113 205 148 106 127 183 215 179 137 183 226 312 313 293 159 146 20 174 171 146 143 134 300 283
23 315 337 353 334 319 100 100 315 355 178 285 311 41 152 143 160 90 118 66 99 151 136 27 105 146 119 55 329 327 239 204 233 179 8 323 89 215 157 165 133 346 286 277 267
339 298 323 26 45 40 143 160 284 339 20 322 148 320 217 142 137 122 104 40 92 101 146 160 142 131 153 224 206 231 211 224 89 5 203 262 119 160 143 157 213 257 288 268 291
341 330 336 348 8 318 204 210 138 153 45 10 65 201 166 161 18 148 126 117 25 73 38 49 124 311 27 82 94 202 211 202 166 180 185 237 132 158 166 201 213 267 306 309 324
360 34 360 329 44 327 278 302 255 167 162 11 139 292 227 171 153 143 129 144 131 111 101 8 108 74 39 81 102 236 197 204 193 218 223 32 197 171 287 285 310 307 298 322 323
14 5 334 288 296 292 201 218 279 218 284 170 265 149 181 329 8 188 186 188 175 178 166 104 110 84 270 236 239 251 231 209 217 227 240 256 262 283 305 295 299 296 289 296 301
12 349 317 295 298 267 27 343 328 252 147 294 274 200 185 80 47 35 90 122 133 190 186 170 148 184 156 210 246 252 228 211 205 207 219 224 236 209 305 309 291 260 212 254 308